Hyannis, MA

10:08 PM EDT on September 26, 2016 (GMT -0400)
Barnstable Municipal-Boardman-Polando Field

Weather History for KHYA - April, 2012

Change the Weather History Date:

Thursday, April 26, 2012

  Actual Average Record
Temperature  
Mean Temperature 45 °F -  
Max Temperature 57 °F 55 °F 70 °F (1951)
Min Temperature 35 °F 40 °F 24 °F (1964)
Degree Days  
Heating Degree Days 20    
Moisture  
Dew Point 40 °F    
Average Humidity 68    
Maximum Humidity 93    
Minimum Humidity 41    
Precipitation  
Precipitation 0.00 in - - ()
Sea Level Pressure  
Sea Level Pressure 29.81 in    
Wind  
Wind Speed 7 mph (South)    
Max Wind Speed 13 mph    
Max Gust Speed 21 mph    
Visibility 10 miles    
Events      
Averages and records for this station are not official NWS values.
T = Trace of Precipitation, MM = Missing Value Source: NWS Daily Summary

Daily Weather History Graph

Daily Weather History Graph

Search for Another Location

Airport or City:

Trip Planner

Search our weather history database for the weather conditions in past years. The results will help you decide how hot, cold, wet, or windy it might be!

Date:

Astronomy

Apr. 26, 2012 Rise Set
Actual Time 5:44 AM EDT 7:34 PM EDT
Civil Twilight 5:14 AM EDT 8:04 PM EDT
Nautical Twilight 4:38 AM EDT 8:40 PM EDT
Astronomical Twilight 3:58 AM EDT 9:19 PM EDT
Moon 9:18 AM EDT (4/26) No Moon Set
Length of Visible Light 14h 50m
Length of Day
13h 50m
Waxing Crescent, 24% of the Moon is Illuminated
Apr 26
Waxing Crescent
Apr 29
First Quarter
May 5
Full
May 12
Last Quarter
May 20
New

Hourly Weather History & Observations

Time (EDT) Temp. Windchill Dew Point Humidity Pressure Visibility Wind Dir Wind Speed Gust Speed Precip Events Conditions
12:56 AM 46.9 °F - 35.1 °F 63% 29.87 in 10.0 mi West 4.6 mph - N/A   Clear
1:56 AM 44.1 °F 40.8 °F 36.0 °F 73% 29.88 in 10.0 mi WSW 5.8 mph - N/A   Clear
2:56 AM 44.1 °F 40.8 °F 35.1 °F 71% 29.88 in 10.0 mi West 5.8 mph - N/A   Clear
3:56 AM 43.0 °F - 32.0 °F 65% 29.90 in 10.0 mi Calm Calm - N/A   Clear
4:56 AM 39.0 °F - 30.9 °F 73% 29.91 in 10.0 mi Calm Calm - N/A   Clear
5:56 AM 35.1 °F - 30.9 °F 85% 29.91 in 10.0 mi Calm Calm - N/A   Clear
6:56 AM 45.0 °F 43.5 °F 32.0 °F 60% 29.93 in 10.0 mi West 3.5 mph - N/A   Clear
7:56 AM 48.9 °F - 30.0 °F 48% 29.95 in 10.0 mi WNW 10.4 mph - N/A   Clear
8:56 AM 51.1 °F - 30.0 °F 44% 29.94 in 10.0 mi West 9.2 mph - N/A   Clear
9:56 AM 55.4 °F - 32.0 °F 41% 29.94 in 10.0 mi West 5.8 mph - N/A   Clear
10:56 AM 55.0 °F - 34.0 °F 45% 29.93 in 10.0 mi South 8.1 mph - N/A   Clear
11:56 AM 54.0 °F - 34.0 °F 47% 29.91 in 10.0 mi South 11.5 mph - N/A   Clear
12:56 PM 54.0 °F - 33.1 °F 45% 29.90 in 10.0 mi SSW 12.7 mph - N/A   Clear
1:56 PM 55.9 °F - 37.9 °F 51% 29.88 in 10.0 mi South 10.4 mph 17.3 mph N/A   Clear
2:56 PM 55.0 °F - 41.0 °F 59% 29.85 in 10.0 mi SE 10.4 mph - N/A   Mostly Cloudy
3:56 PM 53.1 °F - 41.0 °F 64% 29.83 in 10.0 mi SE 11.5 mph - N/A   Mostly Cloudy
4:56 PM 52.0 °F - 43.0 °F 71% 29.79 in 10.0 mi ESE 11.5 mph 19.6 mph N/A   Mostly Cloudy
5:56 PM 53.1 °F - 48.0 °F 83% 29.75 in 10.0 mi SE 9.2 mph 20.7 mph N/A   Overcast
6:56 PM 55.0 °F - 46.9 °F 74% 29.70 in 10.0 mi SSE 10.4 mph 19.6 mph 0.00 in   Overcast
7:56 PM 55.9 °F - 48.9 °F 77% 29.69 in 10.0 mi SSE 9.2 mph 17.3 mph N/A   Overcast
8:56 PM 55.9 °F - 50.0 °F 80% 29.68 in 10.0 mi South 10.4 mph - N/A   Overcast
9:25 PM 55.4 °F - 50.0 °F 82% 29.65 in 10.0 mi SSE 12.7 mph 18.4 mph N/A   Overcast
9:45 PM 55.4 °F - 50.0 °F 82% 29.64 in 10.0 mi SSE 8.1 mph - N/A   Overcast
9:56 PM 55.0 °F - 51.1 °F 86% 29.63 in 10.0 mi SSE 10.4 mph 17.3 mph N/A   Overcast
10:56 PM 53.1 °F - 51.1 °F 93% 29.59 in 10.0 mi SSE 10.4 mph - N/A   Overcast
11:56 PM 54.0 °F - 52.0 °F 93% 29.54 in 10.0 mi SSE 6.9 mph - N/A   Overcast